World > North America > United States > Mississippi > Eastfork

Hourly Eastfork, MS Regional Weather

Feedback E-mail the Weather

Quick WX

Eastfork, MS Weather Maps

°F °C°F °C
Eastfork Weather Map
UTC Time: 8/15/2022, 16:20
Your Time:

Eastfork, MS Regional Weather

Expires:202208151700;;086210
ASUS44 KJAN 151610
RWRMS 

MISSISSIPPI HOURLY WEATHER ROUNDUP
NATIONAL WEATHER SERVICE JACKSON MS
1100 AM CDT MON AUG 15 2022

NOTE: "FAIR: INDICATES FEW OR NO CLOUDS BELOW 12,000 FEET WITH NO
SIGNIFICANT WEATHER AND/OR OBSTRUCTIONS TO VISIBILITY.


MSZ059>079-151700-
SOUTH MISSISSIPPI
  
CITY           SKY/WX    TMP DP  RH WIND       PRES   REMARKS
BROOKHAVEN     FAIR      84  84 100 NW6       30.02S HX 104           
HATTIESBURG    MOSUNNY   89  75  63 NW3       29.99S HX  99           
LAUREL         SUNNY     88  76  67 SW7       29.99S HX  98           
MCCOMB         MOSUNNY   87  74  64 NW9       30.01R HX  95           
NATCHEZ        SUNNY     87  75  67 VRB3      30.02R HX  96           
PINE BELT      MOSUNNY   88  77  69 VRB3      30.01R HX 100           
$$


SKY/WX - Weather  TMP - Temperature  DP - Dew Point  RH - Humidity
WIND - Wind Direction/Speed PRES - Barometric Pressure VSB - Visibility
WCI - Wind Chill Index E13G22 Wind - East Wind 13 mph/Gusts of 22 mph

Trending Headlines

Eastfork Radar Loop



Eastfork Quick Facts


National Two Day Weather Forecast


E-mail the Eastfork Weather Forecast

Voice your opinion or tell us about page issues...